Flag for Canada Weather past 2 weeks in Pictou County, Nova Scotia, Canada

Now
30 °F

Chilly.


Feels Like: 21 °F
Forecast: N/A
Wind: 12 mph from Northeast

Location: Caribou Point

Current Time: Apr 18, 2015 at 8:59:34 PM

Latest Report: Apr 18, 2015 at 8:00 PM


Visibility: N/A

Pressure: 30.02 "Hg

Humidity: 85%

Dew point: 26 °F

Location of Pictou CountyLocation

Historic Weather in Pictou County — Graph

°F

Pictou County temperature yesterday

Maximum temperature yesterday: 53 °F (at 3:00 PM)
Minimum temperature yesterday: 31 °F (at 12:00 AM)
Average temperature yesterday: 41 °F

Past Weeks' High & Low Weather Summary

 TemperatureHumidityPressure
High53 °F (Apr 17, 3:00 PM)100% (Apr 4, 12:00 AM)30.61 "Hg (Apr 4, 12:00 AM)
Low16 °F (Apr 6, 9:00 AM)37% (Apr 13, 4:00 PM)29.05 "Hg (Apr 4, 6:00 PM)
Average32 °F82%30.06 "Hg
* Reported Apr 3 7:00 PM — Apr 18 7:00 PM, Pictou County, Weather by CustomWeather, © 2015

Note: Actual official high and low records may vary slightly from our data, if they occured in-between our weather recording intervals... More about our weather records

Advertising

Pictou County weather history for previous 24 hours

 ConditionsComfort  
Time TempWeatherWind HumidityBarometerVisibility
7:00 PM
Sat, Apr 18
32 °FChilly.15 mph83%30.00 "HgN/A
6:00 PM35 °FChilly.7 mph73%29.99 "HgN/A
5:00 PM36 °FChilly.9 mph71%29.98 "HgN/A
4:00 PM36 °FChilly.15 mph72%29.98 "HgN/A
3:00 PM36 °FChilly.15 mph72%29.98 "HgN/A
2:00 PM37 °FChilly.15 mph67%29.98 "HgN/A
1:00 PM37 °FChilly.12 mph71%29.94 "HgN/A
12:00 PM36 °FChilly.13 mph72%29.91 "HgN/A
11:00 AM36 °FChilly.9 mph72%29.90 "HgN/A
10:00 AM35 °FChilly.7 mph77%29.90 "HgN/A
9:00 AM35 °FChilly.7 mph79%29.89 "HgN/A
8:00 AM34 °FChilly.9 mph86%29.87 "HgN/A
7:00 AM31 °FChilly.10 mph97%29.83 "HgN/A
6:00 AM33 °FChilly.10 mph94%29.79 "HgN/A
5:00 AM34 °FChilly.15 mph95%29.75 "HgN/A
4:00 AM35 °FChilly.14 mph97%29.72 "HgN/A
3:00 AM34 °FChilly.12 mph95%29.71 "HgN/A
2:00 AM40 °FChilly.6 mph93%29.70 "HgN/A
1:00 AM39 °FChilly.10 mph89%29.70 "HgN/A
12:00 AM39 °FChilly.6 mph89%29.68 "HgN/A
11:00 PM
Fri, Apr 17
39 °FChilly.7 mph93%29.67 "HgN/A
10:00 PM39 °FChilly.5 mph89%29.68 "HgN/A
9:00 PM42 °FQuite cool.3 mph82%29.70 "HgN/A
8:00 PM45 °FQuite cool.9 mph75%29.68 "HgN/A
Weather by CustomWeather, © 2015

See weather overviewHow to use our weather pages